CAPE
897 1210 1480 1579 1590 1891 1867 2142 2218 2068 1892 2374 2706 2692 2193 1659 1509 1280 775 235 0 0 0 0 0 0 0 0 0 0 0 0 0 0 0 0 0 0 0 0 0 0 0
281 470 1227 1482 1687 1581 1942 2130 2179 2141 1852 1852 2307 2710 2497 2066 1747 1436 1101 262 114 0 0 0 0 0 0 0 0 0 0 0 0 0 0 0 0 0 0 0 0 0 0
609 629 1180 1553 1551 1623 1988 2270 2330 2597 2473 1889 1967 2297 2586 2233 1975 1593 1236 655 201 59 0 0 0 0 0 0 0 0 0 0 0 0 0 0 0 0 0 0 0 0 0
1590 772 1682 1621 1881 1881 2029 2172 2334 2690 2682 2715 2567 2674 2463 2472 2090 1862 1319 803 334 78 0 0 0 0 0 0 0 0 0 0 0 0 0 0 0 0 0 0 0 0 0
2053 1895 1956 2204 2204 2329 2641 2752 2716 3014 2849 2805 2695 2605 2527 2420 2346 2050 1654 877 298 48 0 0 0 0 0 0 0 0 0 0 0 0 0 0 0 0 0 0 0 0 0
1932 2010 2382 2584 2830 2969 3046 3080 3160 3103 2995 2917 2867 2755 2636 2376 1742 682 456 42 0 0 4 0 0 0 0 0 0 0 0 0 0 0 0 0 0 0 0 0 0 0 0
3378 3372 3421 3517 3552 3622 3566 3597 3675 3686 3558 3401 3231 3086 2994 2860 369 60 0 0 0 0 0 4 0 0 0 0 0 0 0 0 0 0 0 0 0 0 0 0 0 0 0
3957 3908 3881 3859 3811 3716 3653 3680 3733 3792 3707 3756 3543 3412 3187 2648 13 0 0 40 34 0 0 0 0 0 0 0 0 0 0 0 0 0 0 0 0 0 0 0 0 0 0
4052 4106 4118 4199 4293 4212 3968 3844 3810 3613 3529 3526 3442 3332 2993 2190 1 0 0 203 124 45 0 0 0 0 0 0 0 0 0 0 0 0 0 0 0 0 0 0 0 0 0
3793 3193 3376 3461 3418 3395 3672 3870 3948 3717 3542 3334 3169 3045 2860 2757 1 1 0 264 290 75 0 0 0 0 0 0 0 0 0 0 0 0 0 0 0 0 0 0 0 0 0
3115 2962 2733 2414 2648 2953 3148 3158 3177 3287 3442 3367 3001 3002 2696 2481 783 1 1 195 386 32 5 3 0 0 0 0 0 0 0 0 0 0 0 0 0 0 0 0 0 0 0
3220 2168 1271 1353 1662 2095 2823 3132 2998 2639 2519 2635 2702 2665 2054 2039 869 1 1 10 37 40 3 8 3 0 0 0 0 0 0 0 0 0 0 0 0 0 0 0 0 0 0
1522 824 702 1151 1552 2032 2532 2814 2804 2890 2432 1978 1765 1866 1979 1148 265 1 1 1 1 1 3 5 1 0 0 0 0 0 0 0 0 0 0 0 0 0 0 0 0 0 0
914 1085 1177 1479 1452 1825 2031 2357 2535 2674 2487 1953 2010 1954 2018 1031 343 3 1 1 1 0 0 1 0 0 0 0 0 0 0 0 0 0 0 0 0 0 0 0 0 6 0
1170 1283 1446 1237 1448 1646 1770 1813 2051 2648 2333 2131 1947 1768 1806 2068 1468 81 0 3 3 1 1 2 3 1 0 0 0 0 0 0 0 0 0 0 0 0 0 0 4 14 0
1305 921 878 1144 1298 1339 1338 1567 1005 730 265 160 108 178 1127 1153 368 1 2 0 0 0 1 2 1 0 0 0 0 0 0 0 0 0 0 0 0 0 0 0 0 0 0
1319 1307 1184 873 1255 1372 1417 1532 1559 1086 1 2 2 2 2 24 4 2 2 2 1 1 2 1 0 0 0 0 0 0 0 0 0 0 0 0 2 0 0 0 0 0 3
1169 652 965 1096 1045 1086 1058 1054 1140 1216 1167 964 108 0 1 2 2 2 2 1 1 1 4 3 2 0 0 0 0 0 0 0 0 0 0 0 0 0 0 0 0 0 6
915 766 405 394 276 28 73 84 113 225 309 361 373 86 0 2 1 1 1 1 1 1 3 8 5 1 0 0 0 0 0 0 0 0 0 0 0 0 0 0 0 0 0
6 0 0 0 0 0 0 0 0 0 1 12 45 79 255 3 3 4 2 4 3 3 4 3 6 2 3 0 0 0 0 0 0 0 0 0 0 0 0 0 0 0 0
0 0 0 0 0 0 0 0 1 2 1 0 0 0 0 59 26 19 14 3 3 4 4 6 8 11 8 11 3 0 0 5 0 0 0 0 0 0 0 0 0 0 0
0 0 0 0 2 3 4 3 7 7 9 7 6 9 2 0 33 83 14 4 4 7 7 4 4 6 7 7 7 4 0 0 0 0 0 0 0 0 0 0 0 0 0
0 0 1 2 5 2 4 9 12 7 10 7 16 13 11 25 24 30 29 13 6 3 8 10 5 6 8 8 7 2 1 0 0 0 0 0 0 0 0 0 0 0 3
2 8 10 10 2 9 8 9 13 8 9 15 10 10 13 18 21 36 24 18 27 11 12 12 64 10 9 21 32 5 1 0 0 0 0 0 0 0 0 0 1 17 14
7 9 6 9 3 14 15 14 13 13 16 21 17 11 5 7 17 39 37 21 9 5 6 6 10 5 13 8 7 3 0 0 0 0 0 0 0 0 0 0 1 16 51
0 8 12 8 10 11 12 11 10 10 14 15 14 12 11 4 14 36 30 15 2 3 7 9 7 7 8 11 2 0 0 0 0 0 0 0 0 0 0 2 12 43 46
CIN
-416 -364 -255 -162 -144 -128 -106 -87 -79 -79 -94 -61 -44 -32 -49 -63 -59 -62 -82 -170 0 0 0 0 0 0 0 0 0 0 0 0 0 0 0 0 0 0 0 0 0 0 0
-351 -387 -382 -262 -190 -162 -124 -106 -93 -108 -129 -111 -70 -35 -39 -50 -56 -63 -72 -174 -235 0 0 0 0 0 0 0 0 0 0 0 0 0 0 0 0 0 0 0 0 0 0
-590 -658 -407 -309 -275 -234 -161 -130 -111 -102 -109 -138 -122 -80 -43 -63 -67 -79 -87 -136 -213 -240 0 0 0 0 0 0 0 0 0 0 0 0 0 0 0 0 0 0 0 0 0
-315 -554 -381 -366 -286 -233 -188 -165 -134 -118 -110 -95 -96 -85 -80 -60 -67 -62 -89 -114 -167 -252 0 0 0 0 0 0 0 0 0 0 0 0 0 0 0 0 0 0 0 0 0
-276 -255 -267 -225 -208 -171 -171 -179 -162 -92 -108 -100 -86 -85 -75 -59 -54 -63 -57 -92 -113 -205 0 0 0 0 0 0 0 0 0 0 0 0 0 0 0 0 0 0 0 0 0
-308 -278 -209 -165 -124 -108 -129 -119 -105 -84 -103 -85 -78 -68 -48 -54 -145 -241 -216 -310 0 0 0 0 0 0 0 0 0 0 0 0 0 0 0 0 0 0 0 0 0 0 0
-92 -84 -75 -64 -46 -36 -31 -26 -25 -31 -39 -45 -46 -38 -37 -42 -443 -513 0 0 0 0 0 0 0 0 0 0 0 0 0 0 0 0 0 0 0 0 0 0 0 0 0
-49 -37 -37 -34 -34 -33 -30 -23 -12 -2 -4 -2 -4 -12 -21 -53 -575 0 0 -198 -399 0 0 0 0 0 0 0 0 0 0 0 0 0 0 0 0 0 0 0 0 0 0
-33 -32 -31 -26 -15 -11 -12 -9 -4 -4 -5 -3 -2 -2 -13 -77 0 0 0 -249 -303 -415 0 0 0 0 0 0 0 0 0 0 0 0 0 0 0 0 0 0 0 0 0
-26 -36 -40 -35 -33 -28 -17 -8 -2 -3 -3 -2 -9 -14 -16 -18 0 0 0 -218 -208 -342 0 0 0 0 0 0 0 0 0 0 0 0 0 0 0 0 0 0 0 0 0
-43 -53 -60 -63 -59 -43 -36 -28 -17 -8 -2 -2 -12 -12 -22 -28 -178 0 0 -338 -201 -206 0 0 0 0 0 0 0 0 0 0 0 0 0 0 0 0 0 0 0 0 0
-71 -89 -132 -133 -101 -69 -40 -19 -12 -21 -21 -13 -8 -8 -43 -40 -202 0 0 -16 -316 -405 0 0 0 0 0 0 0 0 0 0 0 0 0 0 0 0 0 0 0 0 0
-142 -188 -202 -163 -100 -70 -35 -20 -8 -2 -8 -22 -29 -30 -27 -97 -317 0 0 0 0 0 0 -1 0 0 0 0 0 0 0 0 0 0 0 0 0 0 0 0 0 0 0
-147 -136 -130 -119 -122 -79 -41 -19 -8 -1 0 0 0 0 0 -84 -223 0 0 0 0 0 0 0 0 0 0 0 0 0 0 0 0 0 0 0 0 0 0 0 0 -20 0
-133 -104 -86 -79 -75 -53 -43 -27 -7 0 -5 0 0 0 0 -1 -26 -384 0 0 0 0 0 0 0 0 0 0 0 0 0 0 0 0 0 0 0 0 0 0 -15 -12 0
-76 -60 -65 -72 -53 -48 -34 -18 -104 -153 -331 -416 -403 -45 -42 -45 -220 0 0 0 0 0 0 0 0 0 0 0 0 0 0 0 0 0 0 0 0 0 0 0 0 0 0
-70 -60 -47 -70 -23 -20 -9 -2 -1 -42 -5 0 0 0 0 -3 -9 0 0 0 0 0 0 0 0 0 0 0 0 0 0 0 0 0 0 0 -81 -3 0 0 0 0 -24
-45 -95 -36 -5 -5 -7 -5 -4 -2 -1 -3 -17 -265 0 0 0 0 0 0 0 0 0 0 0 0 0 0 0 0 0 0 0 0 0 0 0 0 0 0 0 0 0 -23
-12 -12 -63 -48 -68 -98 -167 -155 -135 -82 -51 -44 -51 -164 0 0 0 0 0 0 0 0 0 0 0 -1 0 0 0 0 0 0 0 0 0 0 0 0 0 0 0 0 0
-46 0 0 0 0 0 0 0 0 0 -47 -253 -178 -98 -37 0 0 0 0 0 0 0 0 0 0 -1 -1 0 0 0 0 0 0 0 0 0 0 0 0 0 0 0 0
0 0 0 0 0 0 0 0 0 0 0 0 0 0 0 -102 -211 -223 -256 0 0 0 0 0 0 0 0 0 -2 0 0 0 0 0 0 0 0 0 0 0 0 0 0
0 0 0 0 0 0 0 0 0 0 0 -1 0 -1 -4 -1 -198 -173 -100 0 0 0 0 0 0 0 0 0 -1 -2 -2 0 0 0 0 0 0 0 0 0 0 0 -3
0 0 0 0 0 0 0 0 0 0 0 0 0 0 -1 0 0 0 -105 -163 0 0 0 0 0 0 0 0 0 0 -2 0 0 0 0 0 0 0 0 0 0 0 -20
0 0 0 0 0 0 0 0 0 0 0 0 0 0 0 -2 -1 -1 0 0 -78 0 -1 -1 -47 0 0 -103 -56 0 0 0 0 0 0 0 0 0 0 0 0 -32 -26
0 0 -1 0 0 0 0 0 0 0 0 0 0 0 0 0 0 0 -1 -4 0 0 0 0 0 0 0 0 0 0 0 0 0 0 0 0 0 0 0 0 -9 -36 -21
0 0 -1 0 0 -2 -1 0 0 0 0 0 0 0 0 0 0 -8 -3 -6 0 0 0 0 0 0 0 0 -1 0 0 0 0 0 -1 -1 0 0 0 -7 -28 -22 -27
Wind_Speed
10 8 10 12 12 11 11 11 11 9 9 10 10 10 11 11 10 9 8 7 7 6 5 6 6 4 4 4 4 5 6 6 5 4 4 6 5 5 4 2 3 4 5
9 7 12 15 13 12 13 13 12 12 11 11 11 11 11 11 11 11 10 8 9 8 8 7 7 5 5 4 5 6 6 5 4 8 6 6 6 6 5 4 3 3 3
11 6 10 13 13 14 14 13 13 13 13 12 12 12 13 13 13 13 12 11 10 9 8 9 8 7 7 4 5 6 6 6 4 5 7 6 5 6 6 5 4 4 5
11 7 8 10 11 11 10 11 13 13 13 13 13 13 14 14 13 13 13 11 9 9 9 9 9 9 8 7 6 6 5 7 5 6 7 8 6 4 4 6 6 4 4
11 11 12 9 10 10 12 12 12 12 13 13 13 15 14 13 11 14 10 8 6 7 9 8 9 9 8 7 6 7 8 7 8 8 8 8 7 7 7 5 5 5 4
11 12 11 11 10 10 12 12 11 13 13 12 14 14 14 12 13 10 12 10 7 5 7 10 9 11 11 11 10 10 11 11 9 9 9 9 8 6 5 7 6 6 5
8 6 6 7 9 9 10 10 11 12 11 12 13 14 15 14 17 20 18 7 11 13 12 12 10 10 11 10 11 10 9 8 12 11 11 10 8 8 7 6 6 6 3
5 4 3 4 4 5 6 7 8 9 10 11 11 13 13 11 23 23 22 11 11 8 13 16 14 12 12 12 12 11 10 10 8 8 11 10 8 10 9 6 8 6 5
4 1 2 3 4 4 4 5 6 7 8 9 10 10 11 11 18 22 18 16 15 10 11 12 14 11 10 11 12 14 12 11 5 1 4 10 13 12 9 9 8 7 5
3 2 1 1 3 4 5 5 4 5 6 6 8 8 10 11 18 21 21 9 11 8 8 10 15 12 12 14 14 13 13 13 11 9 7 9 13 12 12 6 8 5 5
4 1 3 4 4 4 5 4 5 6 6 6 7 6 8 8 9 19 18 11 8 8 8 9 9 15 16 14 14 13 11 12 11 12 10 9 11 11 9 6 6 5 5
5 2 3 5 5 5 6 5 5 5 6 7 7 6 5 6 8 14 18 19 12 11 13 9 9 14 14 13 14 9 13 14 11 11 12 11 11 11 10 9 8 6 3
3 0 3 4 5 5 6 8 6 5 5 6 6 5 4 3 3 9 19 22 11 9 8 10 12 18 16 13 16 14 15 12 11 12 12 12 12 10 9 8 7 7 6
2 3 3 4 6 5 5 6 7 7 7 7 7 8 7 5 5 5 6 7 8 8 5 7 11 14 14 13 13 11 11 10 9 11 11 11 10 9 9 8 8 8 6
3 4 5 5 7 8 7 8 8 8 7 8 8 8 8 8 7 11 11 8 9 10 8 6 7 7 10 13 13 13 12 9 9 11 10 9 9 10 9 8 8 8 7
5 5 6 6 7 8 8 9 9 13 7 10 10 8 9 11 5 14 16 16 16 17 8 9 9 10 12 15 15 14 13 15 12 11 10 10 9 10 10 9 8 8 9
7 8 7 6 7 7 7 7 9 6 10 11 13 14 13 13 8 9 15 15 16 16 7 10 11 12 12 14 15 15 15 14 14 11 11 10 10 9 10 10 10 9 8
8 4 5 6 6 7 7 8 8 8 10 10 7 10 10 12 11 10 9 9 4 8 9 9 11 12 11 11 14 14 14 14 14 11 10 10 10 9 11 10 10 11 9
7 6 7 6 6 6 6 7 7 8 9 10 10 7 10 9 7 6 14 7 9 9 11 11 10 11 11 11 12 13 15 14 15 12 11 10 9 7 10 10 9 11 10
6 4 5 6 7 7 7 8 9 9 10 11 11 11 9 2 4 7 7 7 8 10 10 12 11 11 12 11 10 10 12 15 15 12 12 10 10 11 10 12 10 10 10
6 7 7 7 8 8 8 9 10 11 12 12 13 13 11 10 11 9 8 9 10 10 11 11 11 11 11 12 12 12 12 14 15 14 13 13 12 10 8 9 11 11 11
6 7 7 8 8 9 10 10 8 9 10 12 12 14 12 7 11 10 10 10 12 12 9 10 10 11 11 12 12 13 14 15 15 14 14 12 10 8 6 9 12 12 11
6 8 8 8 8 11 11 10 11 12 12 15 14 12 11 10 11 12 12 11 10 11 10 9 11 11 13 13 14 16 15 15 15 14 15 16 13 11 10 12 13 13 12
7 8 9 10 10 10 12 14 12 13 13 14 14 13 12 12 13 14 12 11 10 10 10 11 12 16 14 15 14 15 15 14 13 17 21 17 16 15 12 12 15 14 12
7 8 8 8 11 11 11 12 13 14 14 14 13 13 12 12 12 13 11 10 10 10 11 11 11 16 21 23 20 20 19 20 19 19 16 18 18 20 17 16 15 14 14
8 7 7 9 10 11 10 12 13 14 14 14 14 13 11 11 11 11 10 11 10 10 12 11 14 20 21 20 25 27 22 25 21 25 20 18 17 16 14 18 21 14 15
Wind_Direction
194 191 217 231 222 216 222 226 223 222 218 215 212 205 205 204 199 200 206 189 198 195 210 212 216 207 219 216 227 217 206 211 204 133 147 143 158 181 145 175 185 185 163
230 213 211 222 215 219 228 225 222 220 213 216 214 211 210 206 205 209 206 204 202 206 204 202 219 216 227 206 213 211 206 192 179 157 143 157 165 144 123 123 139 147 161
219 195 216 219 218 218 226 228 226 222 216 212 214 213 212 209 203 208 209 208 208 212 211 206 203 203 218 211 211 196 190 185 179 163 147 163 145 159 140 125 123 118 125
220 215 219 221 222 223 231 237 236 228 224 218 217 217 215 213 211 212 210 214 219 215 210 218 215 202 212 208 210 203 189 189 175 171 159 158 166 154 184 158 150 140 134
233 240 256 245 234 224 231 229 229 232 230 223 222 227 222 217 212 208 205 217 234 251 244 220 221 216 194 208 215 204 181 187 175 169 160 164 166 169 186 171 177 147 136
209 228 243 247 243 229 236 240 238 233 231 226 226 228 225 223 198 159 156 158 172 200 258 256 228 205 205 191 207 196 183 168 168 169 168 173 160 174 163 174 175 182 172
182 205 228 242 246 241 235 240 242 241 239 231 229 227 227 220 156 170 163 206 180 174 178 236 235 210 201 200 183 180 197 209 169 167 168 171 161 174 158 166 168 192 199
110 116 158 220 251 267 259 253 254 251 248 244 242 235 230 218 175 172 176 210 224 213 178 198 205 205 201 193 188 176 190 200 195 183 174 167 160 156 165 162 155 142 131
102 67 344 326 324 321 297 278 267 256 252 249 247 246 226 231 178 188 185 197 215 212 198 196 201 203 181 185 197 185 184 198 160 269 143 135 136 148 154 150 157 169 148
123 103 72 297 301 309 308 302 288 257 259 256 256 245 242 240 183 195 189 213 216 209 198 205 205 194 171 177 201 200 184 188 188 171 159 139 151 153 172 198 165 166 143
137 42 350 348 326 313 309 307 299 298 294 275 266 258 246 224 192 195 197 210 210 186 194 204 209 189 165 190 213 202 191 167 176 177 172 167 170 167 179 193 190 188 169
151 141 342 328 326 318 307 300 295 298 297 295 291 276 254 238 189 197 200 210 195 197 203 203 194 181 184 192 207 170 148 166 173 176 175 183 183 180 186 189 189 207 198
147 131 305 307 302 302 294 292 287 275 277 282 275 263 256 200 193 206 203 212 210 202 208 198 182 179 177 187 205 165 169 191 182 186 188 188 193 189 177 181 192 198 207
281 323 320 305 313 303 290 278 276 272 282 287 284 284 274 196 197 181 202 208 217 216 212 194 181 172 181 200 188 181 201 196 189 196 197 191 191 182 189 191 200 194 207
322 316 308 303 302 301 292 286 274 261 266 283 286 289 280 261 240 195 176 190 196 199 170 162 169 172 185 202 198 195 200 189 196 194 197 190 189 193 193 187 206 187 206
312 315 320 309 308 308 308 302 240 246 227 229 249 239 267 266 282 188 191 189 185 160 171 187 188 191 194 199 197 196 195 194 198 194 197 195 192 198 193 183 191 198 206
321 316 316 306 316 319 314 304 303 289 232 241 241 237 230 259 295 226 203 196 179 159 201 197 196 194 202 201 198 196 196 196 193 197 197 199 198 200 188 189 190 202 211
322 312 311 320 324 320 320 314 307 302 302 302 244 230 234 241 247 242 205 132 133 213 206 201 205 202 201 200 204 200 198 193 193 188 186 186 196 194 200 199 193 200 207
340 352 345 337 335 326 320 315 308 300 288 287 288 258 225 228 230 215 172 194 199 201 212 216 206 204 208 211 204 199 196 194 196 182 183 181 180 181 212 201 195 204 202
2 19 330 337 334 331 325 317 311 303 297 291 286 283 283 189 229 214 201 214 208 211 205 211 211 204 204 204 204 207 204 191 190 184 182 183 189 187 195 209 203 205 205
350 347 343 340 342 337 328 323 318 308 300 295 291 289 293 249 255 241 230 213 221 219 211 207 210 212 204 205 199 204 197 207 191 188 185 183 191 190 200 213 216 206 212
350 349 350 347 342 337 330 316 300 294 290 290 290 292 277 244 254 249 237 230 229 228 217 210 208 208 204 201 201 203 202 197 193 188 176 169 174 166 167 223 221 205 206
354 351 341 332 334 332 324 316 306 302 292 290 286 281 275 265 253 249 248 242 232 229 217 209 209 211 212 207 204 202 201 201 191 187 179 171 171 160 192 224 218 203 200
351 336 339 344 339 324 327 323 315 306 299 290 284 277 274 266 263 255 244 244 240 226 219 214 213 212 214 216 210 208 203 197 189 186 180 179 168 166 190 213 217 200 196
354 342 345 325 330 333 327 323 319 314 307 305 293 278 270 267 267 259 245 239 236 232 225 220 224 227 224 217 213 207 200 184 185 181 182 176 172 180 189 211 208 199 188
350 346 334 343 342 334 330 326 323 320 316 311 303 292 271 264 269 257 242 238 236 232 230 229 229 227 227 226 217 207 188 177 177 176 175 168 172 181 198 209 199 187 179